Time,TemperatureF,DewpointF,PressureIn,WindDirection,WindDirectionDegrees,WindSpeedMPH,WindSpeedGustMPH,Humidity,HourlyPrecipIn,Conditions,Clouds,dailyrainin,SoftwareType,DateUTC
2013-03-27 00:00:00,33.7,28.8,30.38,WNW,290,3.0,3.0,82,0.00,,,0.00,Wunderground v.1.13,2013-03-27 04:00:00,
2013-03-27 00:01:00,33.6,28.7,30.38,WNW,290,2.0,3.0,82,0.00,,,0.00,Wunderground v.1.13,2013-03-27 04:01:00,
2013-03-27 00:03:00,33.6,28.7,30.38,WNW,290,2.0,3.0,82,0.00,,,0.00,Wunderground v.1.13,2013-03-27 04:03:00,
2013-03-27 00:09:00,33.5,28.6,30.38,WNW,290,1.0,4.0,82,0.00,,,0.00,Wunderground v.1.13,2013-03-27 04:09:00,
2013-03-27 00:14:00,33.4,28.5,30.38,WNW,290,1.0,2.0,82,0.00,,,0.00,Wunderground v.1.13,2013-03-27 04:14:00,
2013-03-27 00:20:00,33.2,28.6,30.38,WNW,290,0.0,1.0,83,0.00,,,0.00,Wunderground v.1.13,2013-03-27 04:20:00,
2013-03-27 00:25:00,33.0,28.4,30.38,WNW,290,0.0,0.0,83,0.00,,,0.00,Wunderground v.1.13,2013-03-27 04:25:00,
2013-03-27 00:30:00,32.9,28.3,30.38,WNW,290,1.0,1.0,83,0.00,,,0.00,Wunderground v.1.13,2013-03-27 04:30:00,
2013-03-27 00:35:00,32.8,28.2,30.38,WNW,290,0.0,0.0,83,0.00,,,0.00,Wunderground v.1.13,2013-03-27 04:35:00,
2013-03-27 00:42:00,32.5,27.9,30.38,WNW,290,0.0,0.0,83,0.00,,,0.00,Wunderground v.1.13,2013-03-27 04:42:00,
2013-03-27 00:47:00,32.4,27.8,30.38,WNW,290,0.0,0.0,83,0.00,,,0.00,Wunderground v.1.13,2013-03-27 04:47:00,
2013-03-27 00:52:00,32.3,28.0,30.38,WNW,290,0.0,0.0,84,0.00,,,0.00,Wunderground v.1.13,2013-03-27 04:52:00,
2013-03-27 00:57:00,32.1,27.8,30.38,WNW,290,0.0,0.0,84,0.00,,,0.00,Wunderground v.1.13,2013-03-27 04:57:00,
2013-03-27 01:02:00,31.9,27.6,30.38,WNW,290,0.0,1.0,84,0.00,,,0.00,Wunderground v.1.13,2013-03-27 05:02:00,
2013-03-27 01:08:00,31.7,27.4,30.38,WNW,290,0.0,0.0,84,0.00,,,0.00,Wunderground v.1.13,2013-03-27 05:08:00,
2013-03-27 01:14:00,31.5,27.2,30.38,WNW,290,0.0,2.0,84,0.00,,,0.00,Wunderground v.1.13,2013-03-27 05:14:00,
2013-03-27 01:19:00,31.4,27.1,30.38,WNW,290,0.0,0.0,84,0.00,,,0.00,Wunderground v.1.13,2013-03-27 05:19:00,
2013-03-27 01:25:00,31.3,27.3,30.38,WNW,290,0.0,0.0,85,0.00,,,0.00,Wunderground v.1.13,2013-03-27 05:25:00,
2013-03-27 01:30:00,31.2,27.2,30.38,WNW,290,1.0,1.0,85,0.00,,,0.00,Wunderground v.1.13,2013-03-27 05:30:00,
2013-03-27 01:36:00,31.1,27.1,30.38,WNW,290,1.0,1.0,85,0.00,,,0.00,Wunderground v.1.13,2013-03-27 05:36:00,
2013-03-27 01:41:00,31.0,27.0,30.38,WNW,290,1.0,1.0,85,0.00,,,0.00,Wunderground v.1.13,2013-03-27 05:41:00,
2013-03-27 01:47:00,31.1,27.1,30.38,WNW,290,1.0,2.0,85,0.00,,,0.00,Wunderground v.1.13,2013-03-27 05:47:00,
2013-03-27 01:53:00,31.1,27.1,30.38,WNW,290,1.0,2.0,85,0.00,,,0.00,Wunderground v.1.13,2013-03-27 05:53:00,
2013-03-27 01:58:00,31.0,27.0,30.38,WNW,290,0.0,2.0,85,0.00,,,0.00,Wunderground v.1.13,2013-03-27 05:58:00,
2013-03-27 02:03:00,31.0,27.0,30.38,WNW,290,0.0,0.0,85,0.00,,,0.00,Wunderground v.1.13,2013-03-27 06:03:00,
2013-03-27 02:09:00,30.9,26.9,30.38,WNW,290,0.0,1.0,85,0.00,,,0.00,Wunderground v.1.13,2013-03-27 06:09:00,
2013-03-27 02:14:00,30.7,26.7,30.38,WNW,290,0.0,0.0,85,0.00,,,0.00,Wunderground v.1.13,2013-03-27 06:14:00,
2013-03-27 02:20:00,30.7,26.7,30.38,WNW,290,0.0,0.0,85,0.00,,,0.00,Wunderground v.1.13,2013-03-27 06:20:00,
2013-03-27 02:25:00,30.6,26.6,30.38,WNW,290,0.0,0.0,85,0.00,,,0.00,Wunderground v.1.13,2013-03-27 06:25:00,
2013-03-27 02:30:00,30.5,26.5,30.38,WNW,290,0.0,0.0,85,0.00,,,0.00,Wunderground v.1.13,2013-03-27 06:30:00,
2013-03-27 02:35:00,30.5,26.5,30.38,WNW,290,0.0,0.0,85,0.00,,,0.00,Wunderground v.1.13,2013-03-27 06:35:00,
2013-03-27 02:40:00,30.5,26.5,30.38,WNW,290,0.0,0.0,85,0.00,,,0.00,Wunderground v.1.13,2013-03-27 06:40:00,
2013-03-27 02:45:00,30.4,26.7,30.37,WNW,290,0.0,0.0,86,0.00,,,0.00,Wunderground v.1.13,2013-03-27 06:45:00,
2013-03-27 02:51:00,30.4,26.7,30.37,WNW,290,0.0,0.0,86,0.00,,,0.00,Wunderground v.1.13,2013-03-27 06:51:00,
2013-03-27 02:56:00,30.4,26.7,30.37,WNW,290,0.0,0.0,86,0.00,,,0.00,Wunderground v.1.13,2013-03-27 06:56:00,
2013-03-27 03:02:00,30.5,26.8,30.37,WNW,290,0.0,0.0,86,0.00,,,0.00,Wunderground v.1.13,2013-03-27 07:02:00,
2013-03-27 03:07:00,30.5,26.8,30.37,WNW,290,0.0,1.0,86,0.00,,,0.00,Wunderground v.1.13,2013-03-27 07:07:00,
2013-03-27 03:12:00,30.6,27.2,30.37,WNW,290,0.0,0.0,87,0.00,,,0.00,Wunderground v.1.13,2013-03-27 07:12:00,
2013-03-27 03:17:00,30.7,27.3,30.36,WNW,290,0.0,0.0,87,0.00,,,0.00,Wunderground v.1.13,2013-03-27 07:17:00,
2013-03-27 03:23:00,30.7,27.3,30.36,WNW,290,0.0,1.0,87,0.00,,,0.00,Wunderground v.1.13,2013-03-27 07:23:00,
2013-03-27 03:28:00,30.8,27.4,30.36,WNW,290,0.0,0.0,87,0.00,,,0.00,Wunderground v.1.13,2013-03-27 07:28:00,
2013-03-27 03:33:00,30.8,27.7,30.36,WNW,290,0.0,0.0,88,0.00,,,0.00,Wunderground v.1.13,2013-03-27 07:33:00,
2013-03-27 03:39:00,30.9,27.8,30.36,WNW,290,0.0,0.0,88,0.00,,,0.00,Wunderground v.1.13,2013-03-27 07:39:00,
2013-03-27 03:44:00,30.9,27.8,30.36,WNW,290,0.0,0.0,88,0.00,,,0.00,Wunderground v.1.13,2013-03-27 07:44:00,
2013-03-27 03:49:00,31.0,27.9,30.36,WNW,290,0.0,0.0,88,0.00,,,0.00,Wunderground v.1.13,2013-03-27 07:49:00,
2013-03-27 03:54:00,31.0,27.9,30.36,WNW,290,0.0,2.0,88,0.00,,,0.00,Wunderground v.1.13,2013-03-27 07:54:00,
2013-03-27 04:00:00,31.1,28.0,30.36,WNW,290,0.0,0.0,88,0.00,,,0.00,Wunderground v.1.13,2013-03-27 08:00:00,
2013-03-27 04:06:00,31.2,28.1,30.36,WNW,290,0.0,0.0,88,0.00,,,0.00,Wunderground v.1.13,2013-03-27 08:06:00,
2013-03-27 04:11:00,31.3,28.2,30.36,WNW,290,0.0,3.0,88,0.00,,,0.00,Wunderground v.1.13,2013-03-27 08:11:00,
2013-03-27 04:16:00,31.5,28.4,30.37,WNW,290,1.0,1.0,88,0.00,,,0.00,Wunderground v.1.13,2013-03-27 08:16:00,
2013-03-27 04:21:00,31.6,28.5,30.37,WNW,290,1.0,1.0,88,0.00,,,0.00,Wunderground v.1.13,2013-03-27 08:21:00,
2013-03-27 04:26:00,31.6,28.5,30.36,WNW,290,0.0,0.0,88,0.00,,,0.00,Wunderground v.1.13,2013-03-27 08:26:00,
2013-03-27 04:32:00,31.8,28.7,30.37,WNW,290,1.0,3.0,88,0.00,,,0.00,Wunderground v.1.13,2013-03-27 08:32:00,
2013-03-27 04:38:00,31.9,28.8,30.37,WNW,290,2.0,4.0,88,0.00,,,0.00,Wunderground v.1.13,2013-03-27 08:38:00,
2013-03-27 04:44:00,32.0,28.6,30.36,WNW,290,2.0,3.0,87,0.00,,,0.00,Wunderground v.1.13,2013-03-27 08:44:00,
2013-03-27 04:49:00,32.1,28.7,30.36,WNW,290,1.0,2.0,87,0.00,,,0.00,Wunderground v.1.13,2013-03-27 08:49:00,
2013-03-27 04:55:00,32.2,28.5,30.36,WNW,290,1.0,2.0,86,0.00,,,0.00,Wunderground v.1.13,2013-03-27 08:55:00,
2013-03-27 05:01:00,32.2,28.5,30.36,WNW,290,2.0,2.0,86,0.00,,,0.00,Wunderground v.1.13,2013-03-27 09:01:00,
2013-03-27 05:07:00,32.3,28.6,30.36,WNW,290,1.0,2.0,86,0.00,,,0.00,Wunderground v.1.13,2013-03-27 09:07:00,
2013-03-27 05:12:00,32.3,28.3,30.36,WNW,290,0.0,0.0,85,0.00,,,0.00,Wunderground v.1.13,2013-03-27 09:12:00,
2013-03-27 05:17:00,32.3,28.3,30.37,WNW,290,0.0,0.0,85,0.00,,,0.00,Wunderground v.1.13,2013-03-27 09:17:00,
2013-03-27 05:22:00,32.2,28.2,30.37,WNW,290,1.0,2.0,85,0.00,,,0.00,Wunderground v.1.13,2013-03-27 09:22:00,
2013-03-27 05:27:00,32.3,28.3,30.37,WNW,290,1.0,1.0,85,0.00,,,0.00,Wunderground v.1.13,2013-03-27 09:27:00,
2013-03-27 05:32:00,32.2,28.2,30.37,WNW,290,0.0,1.0,85,0.00,,,0.00,Wunderground v.1.13,2013-03-27 09:32:00,
2013-03-27 05:37:00,32.2,28.2,30.38,WNW,290,0.0,2.0,85,0.00,,,0.00,Wunderground v.1.13,2013-03-27 09:37:00,
2013-03-27 05:42:00,32.2,28.2,30.38,WNW,290,0.0,2.0,85,0.00,,,0.00,Wunderground v.1.13,2013-03-27 09:42:00,
2013-03-27 05:47:00,32.2,28.2,30.38,WNW,290,0.0,0.0,85,0.00,,,0.00,Wunderground v.1.13,2013-03-27 09:47:00,
2013-03-27 05:53:00,32.2,28.2,30.38,WNW,290,0.0,0.0,85,0.00,,,0.00,Wunderground v.1.13,2013-03-27 09:53:00,
2013-03-27 05:58:00,32.2,28.2,30.38,WNW,290,0.0,0.0,85,0.00,,,0.00,Wunderground v.1.13,2013-03-27 09:58:00,
2013-03-27 06:03:00,32.2,28.2,30.38,WNW,290,0.0,2.0,85,0.00,,,0.00,Wunderground v.1.13,2013-03-27 10:03:00,
2013-03-27 06:09:00,32.2,28.2,30.38,WNW,290,0.0,2.0,85,0.00,,,0.00,Wunderground v.1.13,2013-03-27 10:09:00,
2013-03-27 06:14:00,32.2,28.2,30.38,WNW,290,0.0,0.0,85,0.00,,,0.00,Wunderground v.1.13,2013-03-27 10:14:00,
2013-03-27 06:19:00,32.2,28.2,30.38,WNW,290,0.0,2.0,85,0.00,,,0.00,Wunderground v.1.13,2013-03-27 10:19:00,
2013-03-27 06:25:00,32.2,28.2,30.39,WNW,290,0.0,0.0,85,0.00,,,0.00,Wunderground v.1.13,2013-03-27 10:25:00,
2013-03-27 06:30:00,32.2,28.2,30.39,WNW,290,0.0,2.0,85,0.00,,,0.00,Wunderground v.1.13,2013-03-27 10:30:00,
2013-03-27 06:35:00,32.2,28.2,30.39,WNW,290,0.0,0.0,85,0.00,,,0.00,Wunderground v.1.13,2013-03-27 10:35:00,
2013-03-27 06:40:00,32.2,28.2,30.38,WNW,290,0.0,4.0,85,0.00,,,0.00,Wunderground v.1.13,2013-03-27 10:40:00,
2013-03-27 06:45:00,32.2,28.2,30.39,WNW,290,1.0,1.0,85,0.00,,,0.00,Wunderground v.1.13,2013-03-27 10:45:00,
2013-03-27 06:51:00,32.2,28.2,30.39,WNW,290,1.0,1.0,85,0.00,,,0.00,Wunderground v.1.13,2013-03-27 10:51:00,
2013-03-27 06:56:00,32.2,28.2,30.39,WNW,290,0.0,2.0,85,0.00,,,0.00,Wunderground v.1.13,2013-03-27 10:56:00,
2013-03-27 07:02:00,32.3,28.3,30.39,WNW,290,0.0,2.0,85,0.00,,,0.00,Wunderground v.1.13,2013-03-27 11:02:00,
2013-03-27 07:07:00,32.3,28.3,30.39,WNW,290,0.0,1.0,85,0.00,,,0.00,Wunderground v.1.13,2013-03-27 11:07:00,
2013-03-27 07:12:00,32.3,28.0,30.39,WNW,290,0.0,0.0,84,0.00,,,0.00,Wunderground v.1.13,2013-03-27 11:12:00,
2013-03-27 07:17:00,32.3,28.0,30.40,WNW,290,0.0,1.0,84,0.00,,,0.00,Wunderground v.1.13,2013-03-27 11:17:00,
2013-03-27 07:23:00,32.3,28.0,30.40,WNW,290,0.0,0.0,84,0.00,,,0.00,Wunderground v.1.13,2013-03-27 11:23:00,
2013-03-27 07:28:00,32.4,28.1,30.40,WNW,290,0.0,2.0,84,0.00,,,0.00,Wunderground v.1.13,2013-03-27 11:28:00,
2013-03-27 07:34:00,32.3,28.0,30.40,WNW,290,0.0,0.0,84,0.00,,,0.00,Wunderground v.1.13,2013-03-27 11:34:00,
2013-03-27 07:40:00,32.3,28.0,30.40,WNW,290,1.0,1.0,84,0.00,,,0.00,Wunderground v.1.13,2013-03-27 11:40:00,
2013-03-27 07:46:00,32.3,28.3,30.41,WNW,290,1.0,2.0,85,0.00,,,0.00,Wunderground v.1.13,2013-03-27 11:46:00,
2013-03-27 07:51:00,32.3,28.3,30.40,WNW,290,1.0,1.0,85,0.00,,,0.00,Wunderground v.1.13,2013-03-27 11:51:00,
2013-03-27 07:56:00,32.4,28.4,30.40,WNW,290,0.0,0.0,85,0.00,,,0.00,Wunderground v.1.13,2013-03-27 11:56:00,
2013-03-27 08:02:00,32.4,28.4,30.41,WNW,290,0.0,0.0,85,0.00,,,0.00,Wunderground v.1.13,2013-03-27 12:02:00,
2013-03-27 08:07:00,32.4,28.4,30.40,WNW,290,0.0,0.0,85,0.00,,,0.00,Wunderground v.1.13,2013-03-27 12:07:00,
2013-03-27 08:12:00,32.4,28.4,30.41,WNW,290,0.0,1.0,85,0.00,,,0.00,Wunderground v.1.13,2013-03-27 12:12:00,
2013-03-27 08:18:00,32.5,28.5,30.41,WNW,290,1.0,1.0,85,0.00,,,0.00,Wunderground v.1.13,2013-03-27 12:18:00,
2013-03-27 08:23:00,32.6,28.3,30.41,WNW,290,1.0,2.0,84,0.00,,,0.00,Wunderground v.1.13,2013-03-27 12:23:00,
2013-03-27 08:28:00,32.7,28.4,30.41,WNW,290,1.0,2.0,84,0.00,,,0.00,Wunderground v.1.13,2013-03-27 12:28:00,
2013-03-27 08:33:00,32.8,28.5,30.41,WNW,290,1.0,1.0,84,0.00,,,0.00,Wunderground v.1.13,2013-03-27 12:33:00,
2013-03-27 08:39:00,32.9,28.3,30.41,WNW,290,1.0,2.0,83,0.00,,,0.00,Wunderground v.1.13,2013-03-27 12:39:00,
2013-03-27 08:45:00,33.1,28.5,30.41,WNW,290,0.0,0.0,83,0.00,,,0.00,Wunderground v.1.13,2013-03-27 12:45:00,
2013-03-27 08:51:00,33.3,28.7,30.42,WNW,290,0.0,0.0,83,0.00,,,0.00,Wunderground v.1.13,2013-03-27 12:51:00,
2013-03-27 08:56:00,33.6,28.7,30.42,WNW,290,1.0,3.0,82,0.00,,,0.00,Wunderground v.1.13,2013-03-27 12:56:00,
2013-03-27 09:02:00,33.7,28.5,30.42,WNW,289,2.0,3.0,81,0.00,,,0.00,Wunderground v.1.13,2013-03-27 13:02:00,
2013-03-27 09:08:00,33.9,28.4,30.42,WNW,289,2.0,3.0,80,0.00,,,0.00,Wunderground v.1.13,2013-03-27 13:08:00,
2013-03-27 09:13:00,34.0,27.9,30.43,WNW,286,3.0,5.0,78,0.00,,,0.00,Wunderground v.1.13,2013-03-27 13:13:00,
2013-03-27 09:18:00,34.1,28.0,30.43,West,280,4.0,7.0,78,0.00,,,0.00,Wunderground v.1.13,2013-03-27 13:18:00,
2013-03-27 09:24:00,34.3,28.2,30.43,West,280,4.0,5.0,78,0.00,,,0.00,Wunderground v.1.13,2013-03-27 13:24:00,
2013-03-27 09:29:00,34.4,28.6,30.43,West,279,4.0,4.0,79,0.00,,,0.00,Wunderground v.1.13,2013-03-27 13:29:00,
2013-03-27 09:34:00,34.4,28.6,30.43,West,279,3.0,4.0,79,0.00,,,0.00,Wunderground v.1.13,2013-03-27 13:34:00,
2013-03-27 09:40:00,34.4,28.2,30.43,West,276,4.0,5.0,78,0.00,,,0.00,Wunderground v.1.13,2013-03-27 13:40:00,
2013-03-27 09:45:00,34.4,28.2,30.43,West,275,5.0,5.0,78,0.00,,,0.00,Wunderground v.1.13,2013-03-27 13:45:00,
2013-03-27 09:50:00,34.4,28.2,30.43,West,281,5.0,9.0,78,0.00,,,0.00,Wunderground v.1.13,2013-03-27 13:50:00,
2013-03-27 09:56:00,34.5,28.0,30.43,West,281,5.0,5.0,77,0.00,,,0.00,Wunderground v.1.13,2013-03-27 13:56:00,
2013-03-27 10:02:00,34.8,28.0,30.43,WNW,300,5.0,6.0,76,0.00,,,0.00,Wunderground v.1.13,2013-03-27 14:02:00,
2013-03-27 10:07:00,34.9,28.1,30.43,WNW,294,5.0,5.0,76,0.00,,,0.00,Wunderground v.1.13,2013-03-27 14:07:00,
2013-03-27 10:12:00,34.9,27.8,30.43,NW,305,4.0,7.0,75,0.00,,,0.00,Wunderground v.1.13,2013-03-27 14:12:00,
2013-03-27 10:18:00,34.7,26.9,30.43,NW,315,6.0,10.0,73,0.00,,,0.00,Wunderground v.1.13,2013-03-27 14:18:00,
2013-03-27 10:23:00,34.4,26.6,30.43,WNW,302,7.0,7.0,73,0.00,,,0.00,Wunderground v.1.13,2013-03-27 14:23:00,
2013-03-27 10:29:00,34.4,27.0,30.43,WNW,298,6.0,7.0,74,0.00,,,0.00,Wunderground v.1.13,2013-03-27 14:29:00,
2013-03-27 10:34:00,34.5,27.1,30.43,NW,305,5.0,6.0,74,0.00,,,0.00,Wunderground v.1.13,2013-03-27 14:34:00,
2013-03-27 10:39:00,34.8,27.0,30.43,NW,321,4.0,7.0,73,0.00,,,0.00,Wunderground v.1.13,2013-03-27 14:39:00,
2013-03-27 10:45:00,35.1,27.0,30.43,WNW,302,5.0,6.0,72,0.00,,,0.00,Wunderground v.1.13,2013-03-27 14:45:00,
2013-03-27 10:50:00,35.3,26.5,30.43,NW,319,6.0,7.0,70,0.00,,,0.00,Wunderground v.1.13,2013-03-27 14:50:00,
2013-03-27 10:55:00,35.6,26.8,30.43,NNW,340,6.0,7.0,70,0.00,,,0.00,Wunderground v.1.13,2013-03-27 14:55:00,
2013-03-27 11:00:00,35.7,26.5,30.43,NW,318,5.0,7.0,69,0.00,,,0.00,Wunderground v.1.13,2013-03-27 15:00:00,
2013-03-27 11:06:00,35.9,26.7,30.43,WNW,286,6.0,11.0,69,0.00,,,0.00,Wunderground v.1.13,2013-03-27 15:06:00,
2013-03-27 11:11:00,36.0,26.1,30.43,NNW,343,6.0,6.0,67,0.00,,,0.00,Wunderground v.1.13,2013-03-27 15:11:00,
2013-03-27 11:17:00,36.0,26.1,30.43,North,350,4.0,6.0,67,0.00,,,0.00,Wunderground v.1.13,2013-03-27 15:17:00,
2013-03-27 11:22:00,36.2,26.6,30.43,NNW,340,3.0,3.0,68,0.00,,,0.00,Wunderground v.1.13,2013-03-27 15:22:00,
2013-03-27 11:28:00,36.2,26.3,30.43,North,350,2.0,3.0,67,0.00,,,0.00,Wunderground v.1.13,2013-03-27 15:28:00,
2013-03-27 11:33:00,36.6,26.3,30.43,NNW,348,1.0,4.0,66,0.00,,,0.00,Wunderground v.1.13,2013-03-27 15:33:00,
2013-03-27 11:38:00,36.8,26.5,30.43,NW,310,2.0,5.0,66,0.00,,,0.00,Wunderground v.1.13,2013-03-27 15:38:00,
2013-03-27 11:44:00,37.1,26.0,30.43,NW,317,3.0,5.0,64,0.00,,,0.00,Wunderground v.1.13,2013-03-27 15:44:00,
2013-03-27 11:49:00,36.9,25.5,30.43,NNW,336,3.0,5.0,63,0.00,,,0.00,Wunderground v.1.13,2013-03-27 15:49:00,
2013-03-27 11:54:00,37.1,26.0,30.43,NNW,336,3.0,3.0,64,0.00,,,0.00,Wunderground v.1.13,2013-03-27 15:54:00,
2013-03-27 11:59:00,37.2,26.1,30.43,NW,309,3.0,10.0,64,0.00,,,0.00,Wunderground v.1.13,2013-03-27 15:59:00,
2013-03-27 12:04:00,37.1,25.7,30.44,NW,305,6.0,7.0,63,0.00,,,0.00,Wunderground v.1.13,2013-03-27 16:04:00,
2013-03-27 12:10:00,37.0,24.8,30.44,NW,311,6.0,6.0,61,0.00,,,0.00,Wunderground v.1.13,2013-03-27 16:10:00,
2013-03-27 12:15:00,37.4,25.9,30.44,NW,309,4.0,4.0,63,0.00,,,0.00,Wunderground v.1.13,2013-03-27 16:15:00,
2013-03-27 12:21:00,37.5,25.7,30.44,NNW,346,5.0,6.0,62,0.00,,,0.00,Wunderground v.1.13,2013-03-27 16:21:00,
2013-03-27 12:26:00,37.3,25.8,30.44,WNW,300,6.0,6.0,63,0.00,,,0.00,Wunderground v.1.13,2013-03-27 16:26:00,
2013-03-27 12:31:00,37.4,25.6,30.44,WNW,301,4.0,8.0,62,0.00,,,0.00,Wunderground v.1.13,2013-03-27 16:31:00,
2013-03-27 12:37:00,37.3,25.1,30.44,NW,309,4.0,6.0,61,0.00,,,0.00,Wunderground v.1.13,2013-03-27 16:37:00,
2013-03-27 12:42:00,38.0,26.5,30.44,WNW,288,4.0,6.0,63,0.00,,,0.00,Wunderground v.1.13,2013-03-27 16:42:00,
2013-03-27 12:48:00,38.6,25.9,30.44,West,281,4.0,6.0,60,0.00,,,0.00,Wunderground v.1.13,2013-03-27 16:48:00,
2013-03-27 12:54:00,39.0,25.9,30.44,West,278,2.0,7.0,59,0.00,,,0.00,Wunderground v.1.13,2013-03-27 16:54:00,
2013-03-27 12:59:00,39.1,26.0,30.44,West,281,2.0,5.0,59,0.00,,,0.00,Wunderground v.1.13,2013-03-27 16:59:00,
2013-03-27 13:04:00,39.3,26.6,30.44,West,281,4.0,8.0,60,0.00,,,0.00,Wunderground v.1.13,2013-03-27 17:04:00,
2013-03-27 13:10:00,39.4,25.8,30.43,NW,316,4.0,5.0,58,0.00,,,0.00,Wunderground v.1.13,2013-03-27 17:10:00,
2013-03-27 13:16:00,39.0,25.5,30.43,NW,325,5.0,7.0,58,0.00,,,0.00,Wunderground v.1.13,2013-03-27 17:16:00,
2013-03-27 13:21:00,38.9,25.4,30.43,NNW,339,4.0,5.0,58,0.00,,,0.00,Wunderground v.1.13,2013-03-27 17:21:00,
2013-03-27 13:27:00,39.4,25.4,30.43,NNW,342,2.0,3.0,57,0.00,,,0.00,Wunderground v.1.13,2013-03-27 17:27:00,
2013-03-27 13:32:00,40.3,26.7,30.43,North,355,3.0,5.0,58,0.00,,,0.00,Wunderground v.1.13,2013-03-27 17:32:00,
2013-03-27 13:37:00,40.3,25.0,30.43,NNW,338,3.0,4.0,54,0.00,,,0.00,Wunderground v.1.13,2013-03-27 17:37:00,
2013-03-27 13:43:00,41.1,27.4,30.43,NNE,15,2.0,8.0,58,0.00,,,0.00,Wunderground v.1.13,2013-03-27 17:43:00,
2013-03-27 13:49:00,41.5,27.4,30.43,NW,326,4.0,11.0,57,0.00,,,0.00,Wunderground v.1.13,2013-03-27 17:49:00,
2013-03-27 13:54:00,41.4,26.4,30.42,NNW,346,5.0,11.0,55,0.00,,,0.00,Wunderground v.1.13,2013-03-27 17:54:00,
2013-03-27 13:59:00,40.7,25.8,30.42,NNE,15,5.0,9.0,55,0.00,,,0.00,Wunderground v.1.13,2013-03-27 17:59:00,
2013-03-27 14:04:00,40.7,27.1,30.42,NNW,327,5.0,6.0,58,0.00,,,0.00,Wunderground v.1.13,2013-03-27 18:04:00,
2013-03-27 14:10:00,41.5,26.1,30.42,NW,325,4.0,4.0,54,0.00,,,0.00,Wunderground v.1.13,2013-03-27 18:10:00,
2013-03-27 14:15:00,42.6,28.0,30.42,NNW,337,3.0,4.0,56,0.00,,,0.00,Wunderground v.1.13,2013-03-27 18:15:00,
2013-03-27 14:20:00,43.3,26.8,30.41,North,9,3.0,3.0,52,0.00,,,0.00,Wunderground v.1.13,2013-03-27 18:20:00,
2013-03-27 14:26:00,43.1,27.6,30.41,North,355,4.0,12.0,54,0.00,,,0.00,Wunderground v.1.13,2013-03-27 18:26:00,
2013-03-27 14:31:00,42.9,26.9,30.41,NNW,336,6.0,10.0,53,0.00,,,0.00,Wunderground v.1.13,2013-03-27 18:31:00,
2013-03-27 14:37:00,43.1,27.1,30.41,NNE,24,5.0,6.0,53,0.00,,,0.00,Wunderground v.1.13,2013-03-27 18:37:00,
2013-03-27 14:42:00,42.9,26.5,30.41,NE,35,2.0,3.0,52,0.00,,,0.00,Wunderground v.1.13,2013-03-27 18:42:00,
2013-03-27 14:47:00,43.6,27.1,30.40,NNW,343,2.0,4.0,52,0.00,,,0.00,Wunderground v.1.13,2013-03-27 18:47:00,
2013-03-27 14:52:00,44.3,27.8,30.40,WNW,303,4.0,9.0,52,0.00,,,0.00,Wunderground v.1.13,2013-03-27 18:52:00,
2013-03-27 14:57:00,44.6,27.1,30.40,North,5,5.0,6.0,50,0.00,,,0.00,Wunderground v.1.13,2013-03-27 18:57:00,
2013-03-27 15:03:00,45.3,28.2,30.40,West,273,5.0,10.0,51,0.00,,,0.00,Wunderground v.1.13,2013-03-27 19:03:00,
2013-03-27 15:08:00,45.2,28.1,30.40,WNW,296,6.0,11.0,51,0.00,,,0.00,Wunderground v.1.13,2013-03-27 19:08:00,
2013-03-27 15:13:00,45.7,27.6,30.39,NW,320,6.0,10.0,49,0.00,,,0.00,Wunderground v.1.13,2013-03-27 19:13:00,
2013-03-27 15:19:00,45.7,27.6,30.39,West,263,4.0,10.0,49,0.00,,,0.00,Wunderground v.1.13,2013-03-27 19:19:00,
2013-03-27 15:24:00,45.7,28.1,30.38,West,281,6.0,11.0,50,0.00,,,0.00,Wunderground v.1.13,2013-03-27 19:24:00,
2013-03-27 15:29:00,46.4,28.8,30.38,North,5,6.0,8.0,50,0.00,,,0.00,Wunderground v.1.13,2013-03-27 19:29:00,
2013-03-27 15:35:00,46.0,27.9,30.38,NNE,13,5.0,6.0,49,0.00,,,0.00,Wunderground v.1.13,2013-03-27 19:35:00,
2013-03-27 15:40:00,45.5,26.9,30.38,NNW,342,5.0,5.0,48,0.00,,,0.00,Wunderground v.1.13,2013-03-27 19:40:00,
2013-03-27 15:46:00,45.2,27.2,30.38,NW,326,3.0,4.0,49,0.00,,,0.00,Wunderground v.1.13,2013-03-27 19:46:00,
2013-03-27 15:51:00,45.2,27.2,30.37,WNW,297,3.0,7.0,49,0.00,,,0.00,Wunderground v.1.13,2013-03-27 19:51:00,
2013-03-27 15:57:00,45.4,27.8,30.37,North,360,3.0,3.0,50,0.00,,,0.00,Wunderground v.1.13,2013-03-27 19:57:00,
2013-03-27 16:02:00,45.6,28.0,30.37,North,360,2.0,5.0,50,0.00,,,0.00,Wunderground v.1.13,2013-03-27 20:02:00,
2013-03-27 16:07:00,45.5,26.9,30.37,NNW,331,5.0,9.0,48,0.00,,,0.00,Wunderground v.1.13,2013-03-27 20:07:00,
2013-03-27 16:13:00,45.6,27.5,30.37,NNW,346,6.0,6.0,49,0.00,,,0.00,Wunderground v.1.13,2013-03-27 20:13:00,
2013-03-27 16:19:00,45.4,26.8,30.37,NW,323,6.0,14.0,48,0.00,,,0.00,Wunderground v.1.13,2013-03-27 20:19:00,
2013-03-27 16:24:00,45.3,27.2,30.36,NW,326,6.0,7.0,49,0.00,,,0.00,Wunderground v.1.13,2013-03-27 20:24:00,
2013-03-27 16:30:00,45.3,26.7,30.36,NW,313,5.0,5.0,48,0.00,,,0.00,Wunderground v.1.13,2013-03-27 20:30:00,
2013-03-27 16:36:00,46.0,28.4,30.36,WNW,298,6.0,12.0,50,0.00,,,0.00,Wunderground v.1.13,2013-03-27 20:36:00,
2013-03-27 16:41:00,46.1,27.5,30.36,NW,321,6.0,6.0,48,0.00,,,0.00,Wunderground v.1.13,2013-03-27 20:41:00,
2013-03-27 16:47:00,45.8,27.7,30.36,North,351,5.0,6.0,49,0.00,,,0.00,Wunderground v.1.13,2013-03-27 20:47:00,
2013-03-27 16:52:00,46.0,28.4,30.36,North,9,5.0,11.0,50,0.00,,,0.00,Wunderground v.1.13,2013-03-27 20:52:00,
2013-03-27 16:57:00,45.3,26.7,30.37,NE,42,6.0,8.0,48,0.00,,,0.00,Wunderground v.1.13,2013-03-27 20:57:00,
2013-03-27 17:02:00,45.0,26.5,30.37,North,5,5.0,6.0,48,0.00,,,0.00,Wunderground v.1.13,2013-03-27 21:02:00,
2013-03-27 17:07:00,45.2,27.6,30.37,NNE,30,3.0,6.0,50,0.00,,,0.00,Wunderground v.1.13,2013-03-27 21:07:00,
2013-03-27 17:13:00,45.0,27.0,30.37,NNW,331,4.0,10.0,49,0.00,,,0.00,Wunderground v.1.13,2013-03-27 21:13:00,
2013-03-27 17:18:00,44.8,26.8,30.37,NNE,17,5.0,6.0,49,0.00,,,0.00,Wunderground v.1.13,2013-03-27 21:18:00,
2013-03-27 17:23:00,44.4,26.4,30.37,NW,325,5.0,7.0,49,0.00,,,0.00,Wunderground v.1.13,2013-03-27 21:23:00,
2013-03-27 17:28:00,44.7,27.2,30.37,NW,322,3.0,4.0,50,0.00,,,0.00,Wunderground v.1.13,2013-03-27 21:28:00,
2013-03-27 17:33:00,44.8,26.3,30.37,NNW,330,3.0,6.0,48,0.00,,,0.00,Wunderground v.1.13,2013-03-27 21:33:00,
2013-03-27 17:39:00,44.6,26.6,30.37,NE,42,5.0,8.0,49,0.00,,,0.00,Wunderground v.1.13,2013-03-27 21:39:00,
2013-03-27 17:44:00,44.4,26.9,30.37,North,355,5.0,14.0,50,0.00,,,0.00,Wunderground v.1.13,2013-03-27 21:44:00,
2013-03-27 17:50:00,44.3,27.3,30.38,NNW,334,6.0,9.0,51,0.00,,,0.00,Wunderground v.1.13,2013-03-27 21:50:00,
2013-03-27 17:55:00,44.3,26.8,30.38,North,355,7.0,7.0,50,0.00,,,0.00,Wunderground v.1.13,2013-03-27 21:55:00,
2013-03-27 18:01:00,44.0,26.5,30.38,NNW,336,7.0,7.0,50,0.00,,,0.00,Wunderground v.1.13,2013-03-27 22:01:00,
2013-03-27 18:07:00,43.8,26.3,30.38,North,5,6.0,8.0,50,0.00,,,0.00,Wunderground v.1.13,2013-03-27 22:07:00,
2013-03-27 18:12:00,43.6,26.6,30.38,NNW,330,6.0,7.0,51,0.00,,,0.00,Wunderground v.1.13,2013-03-27 22:12:00,
2013-03-27 18:18:00,43.5,26.1,30.38,NNE,13,6.0,6.0,50,0.00,,,0.00,Wunderground v.1.13,2013-03-27 22:18:00,
2013-03-27 18:23:00,43.4,26.0,30.38,North,360,4.0,8.0,50,0.00,,,0.00,Wunderground v.1.13,2013-03-27 22:23:00,
2013-03-27 18:28:00,43.3,26.4,30.38,NW,317,5.0,12.0,51,0.00,,,0.00,Wunderground v.1.13,2013-03-27 22:28:00,
2013-03-27 18:33:00,43.4,26.0,30.38,NNW,346,8.0,9.0,50,0.00,,,0.00,Wunderground v.1.13,2013-03-27 22:33:00,
2013-03-27 18:38:00,43.6,26.2,30.38,NNE,14,7.0,7.0,50,0.00,,,0.00,Wunderground v.1.13,2013-03-27 22:38:00,
2013-03-27 18:44:00,43.6,26.2,30.37,NNW,333,5.0,7.0,50,0.00,,,0.00,Wunderground v.1.13,2013-03-27 22:44:00,
2013-03-27 18:49:00,43.6,26.2,30.37,North,360,4.0,5.0,50,0.00,,,0.00,Wunderground v.1.13,2013-03-27 22:49:00,
2013-03-27 18:55:00,43.4,26.5,30.37,NE,40,4.0,5.0,51,0.00,,,0.00,Wunderground v.1.13,2013-03-27 22:55:00,
2013-03-27 19:00:00,43.1,26.2,30.37,NNW,336,6.0,6.0,51,0.00,,,0.00,Wunderground v.1.13,2013-03-27 23:00:00,
2013-03-27 19:05:00,42.7,26.3,30.37,NNE,31,6.0,6.0,52,0.00,,,0.00,Wunderground v.1.13,2013-03-27 23:05:00,
2013-03-27 19:10:00,42.3,25.9,30.37,NE,50,7.0,7.0,52,0.00,,,0.00,Wunderground v.1.13,2013-03-27 23:10:00,
2013-03-27 19:15:00,41.9,26.4,30.38,NNE,16,6.0,12.0,54,0.00,,,0.00,Wunderground v.1.13,2013-03-27 23:15:00,
2013-03-27 19:20:00,41.4,26.0,30.38,NE,36,6.0,11.0,54,0.00,,,0.00,Wunderground v.1.13,2013-03-27 23:20:00,
2013-03-27 19:25:00,41.1,25.7,30.38,NNE,21,7.0,7.0,54,0.00,,,0.00,Wunderground v.1.13,2013-03-27 23:25:00,
2013-03-27 19:30:00,40.7,25.8,30.38,NNE,30,7.0,7.0,55,0.00,,,0.00,Wunderground v.1.13,2013-03-27 23:30:00,
2013-03-27 19:36:00,40.4,25.5,30.38,NNE,21,6.0,8.0,55,0.00,,,0.00,Wunderground v.1.13,2013-03-27 23:36:00,
2013-03-27 19:41:00,40.2,25.7,30.38,NNE,32,6.0,9.0,56,0.00,,,0.00,Wunderground v.1.13,2013-03-27 23:41:00,
2013-03-27 19:47:00,39.9,25.5,30.38,NNE,27,6.0,6.0,56,0.00,,,0.00,Wunderground v.1.13,2013-03-27 23:47:00,
2013-03-27 19:52:00,39.6,25.6,30.38,NE,37,5.0,5.0,57,0.00,,,0.00,Wunderground v.1.13,2013-03-27 23:52:00,
2013-03-27 19:58:00,39.3,25.7,30.38,NE,36,3.0,4.0,58,0.00,,,0.00,Wunderground v.1.13,2013-03-27 23:58:00,
2013-03-27 20:03:00,38.9,25.8,30.38,NE,36,1.0,2.0,59,0.00,,,0.00,Wunderground v.1.13,2013-03-28 00:03:00,
2013-03-27 20:08:00,38.4,25.3,30.38,NNE,33,2.0,4.0,59,0.00,,,0.00,Wunderground v.1.13,2013-03-28 00:08:00,
2013-03-27 20:14:00,38.0,25.3,30.37,NNE,33,2.0,3.0,60,0.00,,,0.00,Wunderground v.1.13,2013-03-28 00:14:00,
2013-03-27 20:20:00,37.7,25.5,30.38,NNE,33,1.0,4.0,61,0.00,,,0.00,Wunderground v.1.13,2013-03-28 00:20:00,
2013-03-27 20:26:00,37.5,25.3,30.38,NNE,33,0.0,0.0,61,0.00,,,0.00,Wunderground v.1.13,2013-03-28 00:26:00,
2013-03-27 20:31:00,37.4,25.2,30.38,NNE,33,0.0,0.0,61,0.00,,,0.00,Wunderground v.1.13,2013-03-28 00:31:00,
2013-03-27 20:37:00,37.1,25.3,30.38,NNE,33,0.0,0.0,62,0.00,,,0.00,Wunderground v.1.13,2013-03-28 00:37:00,
2013-03-27 20:42:00,36.7,25.3,30.38,NNE,33,0.0,0.0,63,0.00,,,0.00,Wunderground v.1.13,2013-03-28 00:42:00,
2013-03-27 20:47:00,36.2,25.2,30.38,NNE,33,0.0,0.0,64,0.00,,,0.00,Wunderground v.1.13,2013-03-28 00:47:00,
2013-03-27 20:52:00,35.6,25.4,30.38,NNE,33,0.0,0.0,66,0.00,,,0.00,Wunderground v.1.13,2013-03-28 00:52:00,
2013-03-27 20:57:00,35.0,25.1,30.38,NNE,33,0.0,0.0,67,0.00,,,0.00,Wunderground v.1.13,2013-03-28 00:57:00,
2013-03-27 21:02:00,34.4,24.9,30.39,NNE,33,0.0,0.0,68,0.00,,,0.00,Wunderground v.1.13,2013-03-28 01:02:00,
2013-03-27 21:07:00,34.3,25.2,30.39,NNE,33,0.0,0.0,69,0.00,,,0.00,Wunderground v.1.13,2013-03-28 01:07:00,
2013-03-27 21:12:00,33.8,25.0,30.39,NNE,33,0.0,0.0,70,0.00,,,0.00,Wunderground v.1.13,2013-03-28 01:12:00,
2013-03-27 21:17:00,33.3,24.9,30.39,NNE,33,0.0,0.0,71,0.00,,,0.00,Wunderground v.1.13,2013-03-28 01:17:00,
2013-03-27 21:23:00,32.6,24.9,30.39,NNE,33,0.0,0.0,73,0.00,,,0.00,Wunderground v.1.13,2013-03-28 01:23:00,
2013-03-27 21:28:00,32.1,24.4,30.39,NNE,33,0.0,0.0,73,0.00,,,0.00,Wunderground v.1.13,2013-03-28 01:28:00,
2013-03-27 21:34:00,31.6,24.3,30.39,NNE,33,0.0,0.0,74,0.00,,,0.00,Wunderground v.1.13,2013-03-28 01:34:00,
2013-03-27 21:40:00,31.2,24.2,30.39,NNE,33,0.0,0.0,75,0.00,,,0.00,Wunderground v.1.13,2013-03-28 01:40:00,
2013-03-27 21:46:00,30.9,24.5,30.40,NNE,33,0.0,0.0,77,0.00,,,0.00,Wunderground v.1.13,2013-03-28 01:46:00,
2013-03-27 21:52:00,30.5,24.1,30.40,NNE,33,0.0,0.0,77,0.00,,,0.00,Wunderground v.1.13,2013-03-28 01:52:00,
2013-03-27 21:57:00,30.1,23.8,30.40,NNE,33,0.0,0.0,77,0.00,,,0.00,Wunderground v.1.13,2013-03-28 01:57:00,
2013-03-27 22:02:00,29.8,23.8,30.40,NNE,33,0.0,0.0,78,0.00,,,0.00,Wunderground v.1.13,2013-03-28 02:02:00,
2013-03-27 22:08:00,29.6,23.6,30.40,NNE,33,0.0,0.0,78,0.00,,,0.00,Wunderground v.1.13,2013-03-28 02:08:00,
2013-03-27 22:13:00,29.4,23.7,30.40,NNE,33,0.0,0.0,79,0.00,,,0.00,Wunderground v.1.13,2013-03-28 02:13:00,
2013-03-27 22:18:00,29.2,23.5,30.40,NNE,33,0.0,0.0,79,0.00,,,0.00,Wunderground v.1.13,2013-03-28 02:18:00,
2013-03-27 22:24:00,29.0,23.3,30.41,NNE,33,0.0,0.0,79,0.00,,,0.00,Wunderground v.1.13,2013-03-28 02:24:00,
2013-03-27 22:30:00,28.8,23.1,30.41,NNE,33,0.0,0.0,79,0.00,,,0.00,Wunderground v.1.13,2013-03-28 02:30:00,
2013-03-27 22:35:00,28.7,23.0,30.41,NNE,33,0.0,0.0,79,0.00,,,0.00,Wunderground v.1.13,2013-03-28 02:35:00,
2013-03-27 22:40:00,28.4,23.0,30.41,NNE,33,0.0,0.0,80,0.00,,,0.00,Wunderground v.1.13,2013-03-28 02:40:00,
2013-03-27 22:46:00,28.3,23.2,30.41,NNE,33,0.0,0.0,81,0.00,,,0.00,Wunderground v.1.13,2013-03-28 02:46:00,
2013-03-27 22:51:00,28.1,23.0,30.41,NNE,33,0.0,0.0,81,0.00,,,0.00,Wunderground v.1.13,2013-03-28 02:51:00,
2013-03-27 22:57:00,27.9,23.1,30.41,NNE,33,0.0,0.0,82,0.00,,,0.00,Wunderground v.1.13,2013-03-28 02:57:00,
2013-03-27 23:02:00,27.7,22.9,30.40,NNE,33,0.0,0.0,82,0.00,,,0.00,Wunderground v.1.13,2013-03-28 03:02:00,
2013-03-27 23:07:00,27.6,22.8,30.41,NNE,33,0.0,0.0,82,0.00,,,0.00,Wunderground v.1.13,2013-03-28 03:07:00,
2013-03-27 23:13:00,27.4,22.9,30.41,NNE,33,0.0,0.0,83,0.00,,,0.00,Wunderground v.1.13,2013-03-28 03:13:00,
2013-03-27 23:18:00,27.3,22.8,30.41,NNE,33,0.0,0.0,83,0.00,,,0.00,Wunderground v.1.13,2013-03-28 03:18:00,
2013-03-27 23:23:00,27.4,23.2,30.41,NNE,33,0.0,0.0,84,0.00,,,0.00,Wunderground v.1.13,2013-03-28 03:23:00,
2013-03-27 23:29:00,27.4,23.2,30.41,NNE,33,0.0,0.0,84,0.00,,,0.00,Wunderground v.1.13,2013-03-28 03:29:00,
2013-03-27 23:34:00,27.2,23.0,30.41,NNE,33,0.0,0.0,84,0.00,,,0.00,Wunderground v.1.13,2013-03-28 03:34:00,
2013-03-27 23:39:00,27.0,22.8,30.41,NNE,33,0.0,0.0,84,0.00,,,0.00,Wunderground v.1.13,2013-03-28 03:39:00,
2013-03-27 23:45:00,26.9,23.0,30.41,NNE,33,0.0,0.0,85,0.00,,,0.00,Wunderground v.1.13,2013-03-28 03:45:00,
2013-03-27 23:51:00,26.8,22.9,30.40,NNE,33,0.0,0.0,85,0.00,,,0.00,Wunderground v.1.13,2013-03-28 03:51:00,
2013-03-27 23:57:00,26.7,22.8,30.40,NNE,33,0.0,0.0,85,0.00,,,0.00,Wunderground v.1.13,2013-03-28 03:57:00,